(188734) = 1996 TG25 = 2005 UB74

Discovered at Palomar on 2005-10-23 by NEAT.

Orbit

Orbit type: Main Belt

Note: WebGL enabled browser required.

epoch2024-03-31.0
epoch JD2460400.5
perihelion date2023-01-14.93197
perihelion JD2459959.43197
argument of perihelion (°)144.97716
ascending node (°)211.26814
inclination (°)7.99666
eccentricity0.1477024
perihelion distance (AU)2.2990910
Tisserand w.r.t. Jupiter3.3
ΔV w.r.t. Earth (km/sec)9.8
semimajor axis (AU)2.6975214
mean anomaly (°)98.12103
mean daily motion (°/day)0.22246230
aphelion distance (AU)3.096
period (years)4.43
P-vector [x]0.99495701
P-vector [y]-0.08746305
P-vector [z]0.04909950
Q-vector [x]0.06961824
Q-vector [y]0.95458466
Q-vector [z]0.28969195
absolute magnitude16.47
phase slope0.15
uncertainty0
referenceMPEC 2024-C163
observations used416
oppositions16
arc length (days)9990
first opposition used1996
last opposition used2024
residual rms (arc-secs)0.78
perturbers coarse indicatorM-v
perturbers precise indicator003Ek
first observation date used1996-10-06.0
last observation date used2024-02-12.0
computer nameMPCLINUX
JD of orbit computation2456966.867037
perihelion JD uncertainty (days)1.0903E-04
argument of perihelion uncertainty (°)4.1885E-05
ascending node uncertainty (°)3.4376E-05
inclination uncertainty (°)8.5606E-06
eccentricity uncertainty 6.1533E-08
perihelion distance uncertainty (AU)1.7139E-07
Minimum Orbit Intersection Distances (in AU)
for orbit epoch: 2460200.5, reference: E2024-CG3
Mercury1.93603
Venus1.58297
Earth1.3011
Mars0.91174
Jupiter2.37977
Saturn6.2639
Uranus15.3741
Neptune27.3839

Observations

422 total observations over interval: 1996 10 06.46758 – 2024 02 12.336337
These data are available for download (format description).

Date (UT) J2000 RA J2000 Dec Magn Location Ref
1996 10 06.46758 02 53 52.28 +16 21 46.1 20.0 V 691 – Steward Observatory, Kitt Peak-Spacewatch MPC 28197
1996 10 06.48408 02 53 51.78 +16 21 40.0   691 – Steward Observatory, Kitt Peak-Spacewatch MPC 28197
1996 10 06.50081 02 53 51.32 +16 21 33.0   691 – Steward Observatory, Kitt Peak-Spacewatch MPC 28197
1996 10 08.41579 02 52 54.36 +16 09 34.4   691 – Steward Observatory, Kitt Peak-Spacewatch MPC 28197
1996 10 08.43823 02 52 53.65 +16 09 26.0 20.0 V 691 – Steward Observatory, Kitt Peak-Spacewatch MPC 28197
1996 10 08.46005 02 52 52.89 +16 09 17.5   691 – Steward Observatory, Kitt Peak-Spacewatch MPC 28197
2000 08 31.24671 22 00 57.92 +00 21 43.9 19.3   704 – Lincoln Laboratory ETS, New Mexico MPS 156070
2000 08 31.25995 22 00 57.11 +00 21 38.4 19.8   704 – Lincoln Laboratory ETS, New Mexico MPS 156070
2000 08 31.28642 22 00 55.96 +00 21 27.5 19.6   704 – Lincoln Laboratory ETS, New Mexico MPS 156070
2000 08 31.29968 22 00 55.28 +00 21 21.9 19.9   704 – Lincoln Laboratory ETS, New Mexico MPS 156070
2000 10 02.16452 21 46 43.92 -03 35 07.2 20.9 V 691 – Steward Observatory, Kitt Peak-Spacewatch MPS 155357
2000 10 02.18543 21 46 43.81 -03 35 15.2 21.1 V 691 – Steward Observatory, Kitt Peak-Spacewatch MPS 155357
2000 10 02.20644 21 46 43.71 -03 35 23.1 21.3 V 691 – Steward Observatory, Kitt Peak-Spacewatch MPS 155357
2005 10 23.35489 04 10 07.64 +16 51 13.2 20.8 R 644 – Palomar Mountain/NEAT MPS 147888
2005 10 23.38036 04 10 06.80 +16 51 04.2 20.3 R 644 – Palomar Mountain/NEAT MPS 147888
2005 10 23.40797 04 10 05.91 +16 50 54.6 20.4 R 644 – Palomar Mountain/NEAT MPS 147888
2005 10 24.43250 04 09 33.61 +16 44 54.7 20.0 V 691 – Steward Observatory, Kitt Peak-Spacewatch MPS 147888
2005 10 24.44995 04 09 33.02 +16 44 48.6 20.0 V 691 – Steward Observatory, Kitt Peak-Spacewatch MPS 147888
2005 10 24.46740 04 09 32.42 +16 44 42.3 20.1 V 691 – Steward Observatory, Kitt Peak-Spacewatch MPS 147888
2005 10 26.30056 04 08 30.77 +16 33 47.1 19.5 R 699 – Lowell Observatory-LONEOS MPS 150869
2005 10 26.32253 04 08 29.90 +16 33 39.1   699 – Lowell Observatory-LONEOS MPS 150869
2005 10 26.34450 04 08 29.22 +16 33 30.4   699 – Lowell Observatory-LONEOS MPS 150869
2005 10 26.36644 04 08 28.34 +16 33 23.4   699 – Lowell Observatory-LONEOS MPS 150869
2005 10 28.35639 04 07 15.18 +16 21 16.9 20.4 V 691 – Steward Observatory, Kitt Peak-Spacewatch MPS 147888
2005 10 28.37388 04 07 14.49 +16 21 10.5 20.4 V 691 – Steward Observatory, Kitt Peak-Spacewatch MPS 147888
2005 10 28.39127 04 07 13.78 +16 21 03.9 20.2 V 691 – Steward Observatory, Kitt Peak-Spacewatch MPS 147888
2005 10 29.38611 04 06 34.95 +16 14 55.1 19.7 V G96 – Mt. Lemmon Survey MPS 147888
2005 10 29.39944 04 06 34.41 +16 14 50.3 19.7 V G96 – Mt. Lemmon Survey MPS 147888
2005 10 29.40638 04 06 34.12 +16 14 47.6 19.6 V G96 – Mt. Lemmon Survey MPS 147888
2005 11 02.38460 04 03 45.50 +15 49 45.7 19.1 V G96 – Mt. Lemmon Survey MPS 150869
2005 11 02.39007 04 03 45.25 +15 49 43.6 19.1 V G96 – Mt. Lemmon Survey MPS 150869
2005 11 02.39554 04 03 45.00 +15 49 41.5 19.4 V G96 – Mt. Lemmon Survey MPS 150869
2005 11 02.40098 04 03 44.74 +15 49 39.2 19.1 V G96 – Mt. Lemmon Survey MPS 150869
2005 11 04.37344 04 02 14.01 +15 37 01.9 19.6 V 691 – Steward Observatory, Kitt Peak-Spacewatch MPS 149760
2005 11 04.39199 04 02 13.09 +15 36 54.9 19.7 V 691 – Steward Observatory, Kitt Peak-Spacewatch MPS 149760
2005 11 04.40938 04 02 12.25 +15 36 48.3 19.6 V 691 – Steward Observatory, Kitt Peak-Spacewatch MPS 149760
2005 11 21.24681 03 47 27.00 +13 49 33.2 19.2 R 699 – Lowell Observatory-LONEOS MPS 150869
2005 11 21.26511 03 47 26.10 +13 49 27.0   699 – Lowell Observatory-LONEOS MPS 150869
2005 11 21.28341 03 47 24.98 +13 49 20.2   699 – Lowell Observatory-LONEOS MPS 150869
2005 11 21.30171 03 47 24.01 +13 49 13.1   699 – Lowell Observatory-LONEOS MPS 150869
2005 11 26.30788 03 42 54.14 +13 20 01.4 19.2 V 703 – Catalina Sky Survey MPS 152242
2005 11 26.31429 03 42 53.85 +13 19 58.5 19.1 V 703 – Catalina Sky Survey MPS 152242
2005 11 26.32071 03 42 53.49 +13 19 57.2 18.9 V 703 – Catalina Sky Survey MPS 152242
2005 11 26.32716 03 42 53.20 +13 19 54.9 19.0 V 703 – Catalina Sky Survey MPS 152242
2005 11 30.25440 03 39 30.69 +12 58 44.8 19.9   704 – Lincoln Laboratory ETS, New Mexico MPS 152242
2005 11 30.26746 03 39 29.96 +12 58 41.0 20.5   704 – Lincoln Laboratory ETS, New Mexico MPS 152242
2005 11 30.29426 03 39 28.55 +12 58 33.2 20.2   704 – Lincoln Laboratory ETS, New Mexico MPS 152242
2005 12 05.20682 03 35 33.67 +12 34 44.3 19.8 R 683 – Goodricke-Pigott Observatory, Tucson MPS 153769
2005 12 05.22044 03 35 33.11 +12 34 41.1 19.7 R 683 – Goodricke-Pigott Observatory, Tucson MPS 153769
2005 12 05.23415 03 35 32.46 +12 34 36.6 19.6 R 683 – Goodricke-Pigott Observatory, Tucson MPS 153769
2008 04 14.42095 15 33 10.19 -16 22 55.7 21.0 V 691 – Steward Observatory, Kitt Peak-Spacewatch MPS 250437
2008 04 14.43856 15 33 09.60 -16 22 50.8 21.0 V 691 – Steward Observatory, Kitt Peak-Spacewatch MPS 250437
2008 04 14.45618 15 33 08.99 -16 22 45.6 20.9 V 691 – Steward Observatory, Kitt Peak-Spacewatch MPS 250437
2008 04 29.28674 15 23 05.60 -15 03 22.3   691 – Steward Observatory, Kitt Peak-Spacewatch MPS 248985
2008 04 29.30438 15 23 04.72 -15 03 15.9   691 – Steward Observatory, Kitt Peak-Spacewatch MPS 248985
2008 04 29.32201 15 23 03.85 -15 03 10.2   691 – Steward Observatory, Kitt Peak-Spacewatch MPS 248985
2008 05 03.25384 15 19 53.04 -14 40 12.3 20.4 V 691 – Steward Observatory, Kitt Peak-Spacewatch MPS 248985
2008 05 03.27149 15 19 52.17 -14 40 05.9 20.7 V 691 – Steward Observatory, Kitt Peak-Spacewatch MPS 248985
2008 05 03.28914 15 19 51.27 -14 39 59.9 21.0 V 691 – Steward Observatory, Kitt Peak-Spacewatch MPS 248985
2008 05 07.23630 15 16 32.34 -14 16 36.9 20.4 V 691 – Steward Observatory, Kitt Peak-Spacewatch MPS 248985
2008 05 07.25745 15 16 31.20 -14 16 29.5 20.2 V 691 – Steward Observatory, Kitt Peak-Spacewatch MPS 248985
2008 05 07.27858 15 16 30.11 -14 16 22.6 20.1 V 691 – Steward Observatory, Kitt Peak-Spacewatch MPS 248985
2008 06 03.24113 14 55 05.55 -11 51 22.9 20.2 V G96 – Mt. Lemmon Survey MPS 250959
2008 06 03.24780 14 55 05.34 -11 51 21.2 20.4 V G96 – Mt. Lemmon Survey MPS 250959
2008 06 03.25447 14 55 05.05 -11 51 19.5 20.3 V G96 – Mt. Lemmon Survey MPS 250959
2008 06 03.26117 14 55 04.80 -11 51 17.8 20.6 V G96 – Mt. Lemmon Survey MPS 250959
2009 06 21.45247 23 25 32.08 +05 19 47.1 21.1 V G96 – Mt. Lemmon Survey MPS 289252
2009 06 21.45671 23 25 32.34 +05 19 49.1 20.4 V G96 – Mt. Lemmon Survey MPS 289252
2009 06 21.46105 23 25 32.55 +05 19 51.0 20.6 V G96 – Mt. Lemmon Survey MPS 289252
2009 06 21.46532 23 25 32.80 +05 19 53.0 21.0 V G96 – Mt. Lemmon Survey MPS 289252
2009 08 17.35531 23 46 07.68 +08 46 07.2 19.8 V 703 – Catalina Sky Survey MPS 292531
2009 08 17.36274 23 46 07.50 +08 46 06.5 19.7 V 703 – Catalina Sky Survey MPS 292531
2009 08 17.37007 23 46 07.32 +08 46 06.5 19.4 V 703 – Catalina Sky Survey MPS 292531
2009 08 17.37744 23 46 07.14 +08 46 04.6 19.6 V 703 – Catalina Sky Survey MPS 292531
2009 08 28.29280 23 41 14.64 +08 06 30.1 18.5 V 703 – Catalina Sky Survey MPS 294888
2009 08 28.29821 23 41 14.31 +08 06 29.4 19.8 V 703 – Catalina Sky Survey MPS 294888
2009 08 28.30341 23 41 14.13 +08 06 26.0 19.8 V 703 – Catalina Sky Survey MPS 294888
2009 08 28.30869 23 41 13.92 +08 06 25.9 20.2 V 703 – Catalina Sky Survey MPS 294888
2009 09 17.19727 23 27 49.57 +05 46 49.6 19.4 V G96 – Mt. Lemmon Survey MPS 295679
2009 09 17.20462 23 27 49.24 +05 46 45.8 19.3 V G96 – Mt. Lemmon Survey MPS 295679
2009 09 17.21181 23 27 48.92 +05 46 42.0 19.2 V G96 – Mt. Lemmon Survey MPS 295679
2009 09 17.21910 23 27 48.60 +05 46 38.5 19.1 V G96 – Mt. Lemmon Survey MPS 295679
2009 09 23.12406 23 23 37.75 +04 54 20.1 19.5 V 691 – Steward Observatory, Kitt Peak-Spacewatch MPS 296783
2009 09 23.14169 23 23 37.01 +04 54 10.4 19.3 V 691 – Steward Observatory, Kitt Peak-Spacewatch MPS 296783
2009 09 23.15680 23 23 36.39 +04 54 02.7 19.2 V 691 – Steward Observatory, Kitt Peak-Spacewatch MPS 296783
2009 09 27.26750 23 20 52.62 +04 16 40.4 18.6 V 703 – Catalina Sky Survey MPS 297724
